Location: Newark
(47.9297°N, 19.1367°E)
Time: 05:18:18
(UTC+00:00)

O/OREOS (USA 219) - Visible Passes

Search period start: 26 November 2020 00:00
Search period end: 06 December 2020 00:00
Orbit: 621 x 646 km, 72.0° (Epoch: 22 May)

Date Brightness Start Highest point End Pass type
(mag) Time Alt. Az. Time Alt. Az. Time Alt. Az.
26 Nov ? 02:56:54 26° SE 02:56:54 26° SE 02:58:57 10° SE visible
26 Nov ? 04:34:24 15° WSW 04:34:24 15° WSW 04:36:06 10° SW visible
26 Nov ? 17:05:40 10° S 17:08:06 27° SSE 17:08:06 27° SSE visible
26 Nov ? 18:45:20 10° WSW 18:45:36 11° WSW 18:45:36 11° WSW visible
27 Nov ? 03:19:40 19° S 03:19:40 19° S 03:20:57 10° SSE visible
27 Nov ? 17:27:14 10° SSW 17:30:42 52° S 17:30:42 52° S visible
28 Nov ? 16:11:31 10° SSE 16:14:49 20° ESE 16:15:41 19° E visible
28 Nov ? 17:49:27 10° SW 17:53:11 46° W 17:53:11 46° W visible
29 Nov ? 16:32:22 10° S 16:36:36 41° ESE 16:38:05 31° ENE visible
29 Nov ? 18:12:17 10° WSW 18:15:34 26° WNW 18:15:34 26° WNW visible
30 Nov ? 16:54:02 10° SSW 16:58:33 87° ESE 17:00:23 36° NNE visible
30 Nov ? 18:35:50 10° W 18:37:51 15° WNW 18:37:51 15° WNW visible
01 Dec ? 15:38:05 10° SSE 15:41:35 22° ESE 15:45:07 10° NE visible
01 Dec ? 17:16:20 10° SW 17:20:42 46° WNW 17:22:35 29° N visible
02 Dec ? 15:59:04 10° S 16:03:23 46° ESE 16:07:15 13° NE visible
02 Dec ? 17:39:14 10° WSW 17:43:01 25° NW 17:44:43 20° NNW visible
03 Dec ? 16:20:50 10° SSW 16:25:21 85° WNW 16:29:18 14° NNE visible
03 Dec ? 18:02:55 10° WNW 18:05:32 15° NW 18:06:46 14° NNW visible
04 Dec ? 16:43:13 10° SW 16:47:32 42° WNW 16:51:18 13° NNE visible
05 Dec ? 15:25:47 10° S 15:30:11 51° ESE 15:34:38 10° NE visible
05 Dec ? 17:06:13 10° WSW 17:09:52 23° NW 17:13:14 12° N visible
